Location: Hawks Ness
(60.2333°N, 1.1667°W)
Time: 07:28:26
(UTC+00:00)

CZ-2D R/B - Pass Details

Date: 22 October 2019
Orbit: 792 x 845 km, 98.6° (Epoch: 21 November)

Event Time Altitude Azimuth Distance (km) Brightness Sun altitude
Rises 03:01:43 0° 17° (NNE) 3,309 6.0 -29.3°
Reaches altitude 10° 03:04:05 10° 13° (NNE) 2,378 5.1 -29.1°
Enters shadow 03:07:57 44° 341° (NNW) 1,106 2.8 -28.7°
